Location: Bidwell Hollow
(37.7387°N, 90.1707°W)
Time: 01:16:38
(UTC+00:00)

Vanguard 3 - Pass Details

Date: 15 May 2026
Orbit: 507 x 3204 km, 33.3° (Epoch: 6 June)

Event Time Altitude Azimuth Distance (km) Brightness Sun altitude
Rises 20:42:50 0° 254° (WSW) 6,777 12.5 49.5°
Reaches altitude 10° 20:47:05 10° 253° (WSW) 5,936 12.5 48.7°
Maximum altitude 21:06:38 75° 173° (S) 3,173 10.9 44.9°
Drops below altitude 10° 21:22:52 10° 92° (E) 5,062 10.8 41.7°
Sets 21:26:10 0° 90° (E) 5,781 11.0 41.1°
